EW2961 Weather Reports


time (UTC)temp
F
wind
direction
speed
knots
gust
knots
rain 1hr
in
rain 24hr
in
rain mn
in
humidity
%
barometer
mb
20260506004504 51 12 4.3 13.0 0.00 0.00 0.00 78 1009.1
20260506003003 52 28 4.3 13.9 0.00 0.00 0.00 77 1009.1
20260506001503 52 23 5.2 16.5 0.00 0.00 0.00 76 1008.4
20260506000003 52 5 5.2 13.0 0.00 0.00 0.00 74 1008.6
20260505234503 52 24 2.6 7.8 0.00 0.00 0.00 75 1008.8
20260505233003 52 12 4.3 12.2 0.00 0.00 0.00 75 1008.5
20260505231503 53 21 5.2 13.9 0.00 0.00 0.00 74 1008.4
20260505230003 53 10 5.2 13.0 0.00 0.00 0.00 73 1008.1
20260505224503 53 16 4.3 13.0 0.00 0.00 0.00 74 1007.6
20260505223003 53 4 5.2 14.8 0.00 0.00 0.00 73 1007.7
20260505221504 54 16 4.3 13.9 0.00 0.00 0.00 74 1007.2
20260505220003 54 14 3.5 12.2 0.00 0.00 0.00 76 1007.3
20260505214504 54 23 4.3 11.3 0.00 0.00 0.00 76 1007.2
20260505213003 54 15 5.2 13.0 0.00 0.00 0.00 75 1007.5
20260505211503 55 12 4.3 14.8 0.00 0.00 0.00 76 1007.2
20260505210004 55 13 3.5 9.6 0.00 0.00 0.00 79 1006.6
20260505204503 54 2 7.0 16.5 0.00 0.00 0.00 79 1007.0
20260505203003 55 2 5.2 13.0 0.00 0.00 0.00 80 1007.2
20260505201503 56 12 4.3 13.0 0.00 0.00 0.00 79 1006.7
20260505200218 56 9 4.3 14.8 0.00 0.00 0.00 80 1006.6
20260505194503 56 4 5.2 12.2 0.00 0.00 0.00 81 1006.7
20260505193003 56 15 3.5 11.3 0.00 0.00 0.00 81 1006.7
20260505191503 56 22 3.5 11.3 0.00 0.00 0.00 83 1006.2
20260505190218 56 5 5.2 14.8 0.00 0.00 0.00 82 1006.1
20260505184503 56 1 3.5 13.9 0.00 0.00 0.00 83 1006.2
20260505183218 56 6 4.3 13.9 0.00 0.00 0.00 84 1006.0
20260505181717 56 360 4.3 13.9 0.00 0.00 0.00 85 1006.2
20260505180004 56 2 4.3 12.2 0.00 0.00 0.00 86 1006.1
20260505174718 56 11 5.2 12.2 0.00 0.00 0.00 86 1005.0
20260505173003 57 11 5.2 14.8 0.00 0.00 0.00 86 1005.4
20260505171503 57 16 4.3 15.6 0.00 0.00 0.00 87 1005.4
20260505170003 58 3 3.5 9.6 0.00 0.00 0.00 87 1004.7
20260505164504 58 5 5.2 13.0 0.00 0.00 0.00 87 1004.4
20260505163003 59 14 4.3 13.0 0.00 0.00 0.00 86 1004.3
20260505161504 60 2 3.5 13.0 0.00 0.00 0.00 86 1004.3
20260505153003 66 360 2.6 12.2 0.00 0.00 0.00 83 1003.2
20260505151717 68 4 2.6 9.6 0.00 0.00 0.00 82 1003.2
20260505140218 69 128 1.7 7.0 0.00 0.00 0.00 83 1002.1
20260505124718 66 67 0.9 5.2 0.00 0.00 0.00 85 1002.8
20260505123003 66 91 0.9 7.0 0.00 0.00 0.00 86 1002.5
20260505121503 66 84 1.7 7.8 0.00 0.00 0.00 86 1002.3
20260505120004 66 86 0.9 8.7 0.00 0.00 0.00 86 1002.3
20260505114504 66 82 1.7 6.1 0.00 0.00 0.00 86 1002.0
20260505113217 66 68 0.9 4.3 0.00 0.00 0.00 86 1002.2
20260505111718 66 87 0.9 6.1 0.00 0.00 0.00 86 1002.1
20260505101503 66 82 1.7 7.8 0.00 0.00 0.00 86 1001.2
20260505100003 66 74 1.7 7.0 0.00 0.00 0.00 86 1001.0
20260505094504 66 91 1.7 7.8 0.00 0.00 0.00 86 1000.9
20260505093003 66 82 1.7 7.0 0.00 0.00 0.00 85 1001.0
20260505091503 66 87 0.9 6.1 0.00 0.00 0.00 84 1001.1
20260505090004 67 84 1.7 7.0 0.00 0.00 0.00 82 1001.2
20260505084503 67 72 1.7 7.8 0.00 0.00 0.00 81 1001.2
20260505083003 68 80 1.7 4.3 0.00 0.00 0.00 80 1001.2
20260505081503 68 79 1.7 6.1 0.00 0.00 0.00 79 1001.4
20260505080218 68 102 0.9 6.1 0.00 0.00 0.00 79 1001.4
20260505074504 68 90 0.9 3.5 0.00 0.00 0.00 79 1001.7
20260505073003 68 91 0.9 5.2 0.00 0.00 0.00 78 1002.0
20260505071503 68 74 0.0 4.3 0.00 0.00 0.00 79 1002.1
20260505070217 68 74 0.0 2.6 0.00 0.00 0.00 79 1002.0
20260505064503 68 0 0.0 0.0 0.00 0.00 0.00 79 1002.5
20260505063003 68 304 0.0 2.6 0.00 0.00 0.00 79 1002.5
20260505061503 68 176 0.0 1.7 0.00 0.00 0.00 79 1002.1
20260505060003 68 177 0.0 5.2 0.00 0.00 0.00 78 1001.5
20260505054718 68 185 0.0 4.3 0.00 0.00 0.00 78 1001.4
20260505053217 68 182 0.9 7.0 0.00 0.00 0.00 77 1001.6
20260505051504 68 176 0.9 3.5 0.00 0.00 0.00 77 1001.8
20260505041503 68 169 0.9 7.0 0.00 0.00 0.00 74 1001.8
20260505040004 69 146 1.7 7.8 0.00 0.00 0.00 73 1002.1
20260505034504 69 158 2.6 13.9 0.00 0.00 0.00 70 1002.2
20260505033003 69 164 1.7 7.8 0.00 0.00 0.00 70 1002.5
20260505031503 69 167 0.9 6.1 0.00 0.00 0.00 69 1002.5
20260505030218 70 143 0.9 7.0 0.00 0.00 0.00 68 1002.8
20260505024503 70 169 0.9 6.1 0.00 0.00 0.00 66 1002.8
20260505023004 71 158 0.9 6.1 0.00 0.00 0.00 65 1002.9
20260505021503 71 166 1.7 7.8 0.00 0.00 0.00 65 1002.7
20260505020217 72 165 1.7 9.6 0.00 0.00 0.00 64 1002.9
20260505014504 72 151 1.7 6.1 0.00 0.00 0.00 63 1002.7
20260505013003 73 177 0.9 3.5 0.00 0.00 0.00 63 1002.8
20260505011718 74 179 0.9 5.2 0.00 0.00 0.00 61 1002.7
20260505010003 74 169 2.6 6.1 0.00 0.00 0.00 60 1002.6